User: anonymous   Login
Location: Unspecified
(0.0000°N, 0.0000°E)
Time: 13:01:50
(UTC+02:00)
Language:

Cosmos 1758 - Orbit

View from above orbital plane
View from above orbital plane
View from above satellite
View from above satellite

Ground track
Ground track

The orbit data is extracted from the following two-line orbital elements,

1 16791U 86046A   17149.84390104 +.00000312 +00000-0 +20209-4 0  9992
2 16791 082.4718 049.9513 0017553 146.0267 214.2087 15.04407649682644
Epoch (UTC): 29 May 2017 20:15:13
Eccentricity: 0.0017553
inclination: 82.4718°
perigee height: 541 km
apogee height: 565 km
right ascension of ascending node: 49.9513°
argument of perigee: 146.0267°
revolutions per day: 15.04407649
mean anomaly at epoch: 214.2087°
orbit number at epoch: 68264

The dashed part of the orbit path shows where the satellite is in the earth's shadow,  

DLR